星链-31719 (STARLINK-31719 )

导读

STARLINK-31719是美国太空探索技术公司SpaceX星链星座中的一颗卫星,于2024年4月13日发射升空。星链系统旨在构建全球卫星互联网,为全球偏远地区、海洋与空中提供低延迟宽带网络服务,该卫星进一步扩充了星链星座的规模,提升了覆盖范围与服务能力。

Basic Information
目录编号:
59495
目录名称:
STARLINK-31719
国际标识:
2024-071M
轨道中心:
EARTH
卫星名称:
星链-31719
卫星全名:
星链-31719 (STARLINK-31719 )
卫星状态:
在轨 (已飞行792 天)
发射日期:
2024-04-13 UTC
国别 :
美国 (US)
星等 :
--
Orbit Information
数据来源 国际轨道数据 AOE轨道数据
星历时间 2026-06-14T14:30:36+0800
8小时前
查看轨道信息
2026-06-14T02:00:00+0800
20小时前
查看轨道信息
半长轴 6861.212km 6861.187km
偏心率 0.0001145 0.0001054
轨道倾角 42.998° 42.998°
近地点辐角 272.347° 240.553°
升交点赤经 154.549° 157.498°
平近点角 87.725° 129.688°
近地点 482.289km 482.326km
远地点 483.861km 483.774km
周期 94.267分钟 94.267分钟
每日圈数 15.275715 15.275798
Detailed Information
固有亮度:
5
最大亮度:
1.5
卫星平台:
Starlink v2.0 mini
覆盖范围:
全球
运营商:
太空探索技术公司
运营商所在国:
美国
制造商(研发单位):
太空探索技术公司
制造商所在国:
美国
使用方式:
暂无
Satellite Introduction
星链(Starlink)计划是由太空探索技术公司(SpaceX)提出的一个巨型低轨卫星互联网星座项目,计划在2019年至2024年间在太空搭建由约1.2万颗卫星组成的“星链”网络,其中1584颗将部署在地球上空550千米处的近地轨道,并从2020年开始工作。该卫星仍在工作。
2D Orbit Map
3D Orbit Map
Orbit Altitude Analysis Chart
Orbit Inclination Analysis Chart
Orbit Comprehensive Analysis Chart
View Comprehensive Chart